EAI49D EIDL-EIDW

Flight info

Callsign EAI49D
Flight time 0h 38m
Altitude 17000
Route CFN DCT TADEX DCT ELBOB DCT BAMLI BAMLI3R
Aircraft AT76/M-SDFGIRY/S

Departure

Time 2026-04-25 16:54
Airport Donegal Airport (EIDL)

Arrival

Time 2026-04-25 17:32
Airport Dublin Airport (EIDW)
Time Latitude Longitude Altitude Speed Heading
2026-04-25 16:46 55.03849 -8.34235 38 ft 0 kts 200°
2026-04-25 16:48 55.03847 -8.34247 38 ft 1 kts 256°
2026-04-25 16:49 55.03851 -8.34255 39 ft 1 kts 300°
2026-04-25 16:49 55.03857 -8.34275 39 ft 3 kts 300°
2026-04-25 16:49 55.03867 -8.34302 39 ft 3 kts 300°
2026-04-25 16:49 55.03870 -8.34317 40 ft 3 kts 290°
2026-04-25 16:50 55.03880 -8.34363 42 ft 2 kts 290°
2026-04-25 16:50 55.03886 -8.34392 43 ft 3 kts 291°
2026-04-25 16:50 55.03875 -8.34451 42 ft 9 kts 220°
2026-04-25 16:50 55.03831 -8.34486 40 ft 10 kts 211°
2026-04-25 16:51 55.03806 -8.34481 39 ft 1 kts 64°
2026-04-25 16:51 55.03811 -8.34479 39 ft 0 kts 21°
2026-04-25 16:51 55.03818 -8.34480 39 ft 1 kts
2026-04-25 16:51 55.03832 -8.34478 40 ft 5 kts 10°
2026-04-25 16:52 55.03840 -8.34473 40 ft 0 kts 20°
2026-04-25 16:53 55.03966 -8.34394 49 ft 47 kts 18°
2026-04-25 16:54 55.04443 -8.34083 70 ft 96 kts 20°
2026-04-25 16:54 55.05158 -8.33618 331 ft 112 kts 17°
2026-04-25 16:54 55.05906 -8.33181 782 ft 120 kts 15°
2026-04-25 16:54 55.06733 -8.32803 1237 ft 126 kts 17°
2026-04-25 16:55 55.07557 -8.32282 1687 ft 126 kts 46°
2026-04-25 16:55 55.07720 -8.30930 2176 ft 120 kts 119°
2026-04-25 16:55 55.07169 -8.29864 2728 ft 118 kts 135°
2026-04-25 16:55 55.06567 -8.28880 3272 ft 119 kts 138°
2026-04-25 16:56 55.05949 -8.27923 3745 ft 120 kts 139°
2026-04-25 16:56 55.05253 -8.26870 3774 ft 146 kts 139°
2026-04-25 16:56 55.04428 -8.25607 3853 ft 167 kts 139°
2026-04-25 16:56 55.03547 -8.24222 4183 ft 171 kts 138°
2026-04-25 16:57 55.02676 -8.22800 4526 ft 172 kts 137°
2026-04-25 16:57 55.02103 -8.21852 4764 ft 172 kts 137°
2026-04-25 16:57 55.00938 -8.19909 5250 ft 173 kts 137°
2026-04-25 16:57 55.00069 -8.18455 5613 ft 174 kts 137°
2026-04-25 16:58 54.99210 -8.17008 5950 ft 175 kts 137°
2026-04-25 16:58 54.98332 -8.15538 6307 ft 176 kts 137°
2026-04-25 16:58 54.97447 -8.14064 6634 ft 177 kts 137°
2026-04-25 16:58 54.96558 -8.12587 6961 ft 177 kts 137°
2026-04-25 16:59 54.95663 -8.11103 7303 ft 178 kts 137°
2026-04-25 16:59 54.94767 -8.09622 7613 ft 178 kts 137°
2026-04-25 16:59 54.93867 -8.08139 7933 ft 178 kts 137°
2026-04-25 16:59 54.92965 -8.06652 8242 ft 179 kts 137°
2026-04-25 17:00 54.92061 -8.05164 8566 ft 179 kts 137°
2026-04-25 17:00 54.91156 -8.03669 8895 ft 179 kts 137°
2026-04-25 17:00 54.90250 -8.02173 9218 ft 180 kts 137°
2026-04-25 17:00 54.89339 -8.00674 9528 ft 180 kts 137°
2026-04-25 17:01 54.88431 -7.99179 9842 ft 180 kts 137°
2026-04-25 17:01 54.87519 -7.97675 10139 ft 181 kts 137°
2026-04-25 17:01 54.86599 -7.96165 10402 ft 182 kts 137°
2026-04-25 17:01 54.85680 -7.94653 10678 ft 182 kts 137°
2026-04-25 17:02 54.84757 -7.93139 10955 ft 183 kts 137°
2026-04-25 17:02 54.83840 -7.91638 11227 ft 184 kts 137°
2026-04-25 17:02 54.82899 -7.90096 11507 ft 184 kts 137°
2026-04-25 17:02 54.82282 -7.89084 11674 ft 184 kts 137°
2026-04-25 17:03 54.81044 -7.87058 12023 ft 185 kts 137°
2026-04-25 17:03 54.80106 -7.85522 12279 ft 186 kts 137°
2026-04-25 17:03 54.79165 -7.83983 12544 ft 186 kts 137°
2026-04-25 17:03 54.78221 -7.82437 12822 ft 187 kts 137°
2026-04-25 17:04 54.77273 -7.80890 13092 ft 188 kts 137°
2026-04-25 17:04 54.76320 -7.79339 13355 ft 188 kts 137°
2026-04-25 17:04 54.75365 -7.77784 13614 ft 189 kts 137°
2026-04-25 17:04 54.74408 -7.76221 13842 ft 189 kts 138°
2026-04-25 17:05 54.73448 -7.74643 14095 ft 190 kts 136°
2026-04-25 17:05 54.71617 -7.71320 14560 ft 192 kts 133°
2026-04-25 17:05 54.70712 -7.69611 14795 ft 193 kts 134°
2026-04-25 17:06 54.69804 -7.67894 15003 ft 194 kts 134°
2026-04-25 17:06 54.68889 -7.66168 15205 ft 195 kts 134°
2026-04-25 17:06 54.67980 -7.64459 15418 ft 196 kts 134°
2026-04-25 17:06 54.67057 -7.62723 15616 ft 196 kts 134°
2026-04-25 17:07 54.66130 -7.60982 15796 ft 197 kts 134°
2026-04-25 17:07 54.65199 -7.59234 15988 ft 198 kts 133°
2026-04-25 17:07 54.64266 -7.57484 16163 ft 199 kts 133°
2026-04-25 17:07 54.63328 -7.55718 16347 ft 199 kts 134°
2026-04-25 17:08 54.62387 -7.53951 16533 ft 200 kts 134°
2026-04-25 17:08 54.61437 -7.52175 16744 ft 201 kts 134°
2026-04-25 17:08 54.60487 -7.50400 16927 ft 202 kts 134°
2026-04-25 17:08 54.59527 -7.48602 17061 ft 206 kts 133°
2026-04-25 17:09 54.58538 -7.46754 17104 ft 212 kts 134°
2026-04-25 17:09 54.57531 -7.44877 17135 ft 219 kts 134°
2026-04-25 17:09 54.56469 -7.42895 17141 ft 225 kts 133°
2026-04-25 17:09 54.55395 -7.40889 17160 ft 231 kts 133°
2026-04-25 17:10 54.54305 -7.38860 17152 ft 235 kts 133°
2026-04-25 17:10 54.53183 -7.36772 17151 ft 239 kts 133°
2026-04-25 17:10 54.52048 -7.34666 17154 ft 242 kts 133°
2026-04-25 17:10 54.50901 -7.32530 17150 ft 244 kts 133°
2026-04-25 17:11 54.49742 -7.30378 17149 ft 246 kts 133°
2026-04-25 17:11 54.48573 -7.28210 17161 ft 247 kts 133°
2026-04-25 17:11 54.47400 -7.26037 17163 ft 249 kts 133°
2026-04-25 17:11 54.46217 -7.23846 17155 ft 250 kts 133°
2026-04-25 17:12 54.45034 -7.21656 17153 ft 251 kts 134°
2026-04-25 17:12 54.43846 -7.19464 17158 ft 251 kts 134°
2026-04-25 17:12 54.42650 -7.17256 17153 ft 252 kts 134°
2026-04-25 17:12 54.41469 -7.15075 17155 ft 252 kts 134°
2026-04-25 17:13 54.40272 -7.12868 17156 ft 252 kts 134°
2026-04-25 17:13 54.39869 -7.12127 17155 ft 252 kts 134°
2026-04-25 17:13 54.37886 -7.08477 17157 ft 251 kts 134°
2026-04-25 17:13 54.36694 -7.06287 17164 ft 251 kts 134°
2026-04-25 17:14 54.35501 -7.04098 17168 ft 251 kts 134°
2026-04-25 17:14 54.34306 -7.01909 17164 ft 252 kts 134°
2026-04-25 17:14 54.33110 -6.99718 17163 ft 252 kts 134°
2026-04-25 17:14 54.31916 -6.97522 17166 ft 252 kts 134°
2026-04-25 17:15 54.30716 -6.95325 17167 ft 252 kts 134°
2026-04-25 17:15 54.29517 -6.93135 17165 ft 252 kts 134°
2026-04-25 17:15 54.28317 -6.90945 17165 ft 252 kts 134°
2026-04-25 17:15 54.27114 -6.88753 17172 ft 252 kts 134°
2026-04-25 17:16 54.25771 -6.86918 17173 ft 249 kts 157°
2026-04-25 17:16 54.24065 -6.86629 17177 ft 251 kts 187°
2026-04-25 17:16 54.22354 -6.87109 17165 ft 253 kts 186°
2026-04-25 17:16 54.20604 -6.87362 17166 ft 251 kts 174°
2026-04-25 17:17 54.18912 -6.86690 17168 ft 248 kts 162°
2026-04-25 17:17 54.17242 -6.85871 17169 ft 250 kts 164°
2026-04-25 17:17 54.15545 -6.85178 17169 ft 252 kts 167°
2026-04-25 17:17 54.13817 -6.84630 17168 ft 253 kts 169°
2026-04-25 17:18 54.12087 -6.84142 17172 ft 255 kts 169°
2026-04-25 17:18 54.10339 -6.83643 17173 ft 256 kts 169°
2026-04-25 17:18 54.08576 -6.83137 17166 ft 257 kts 169°
2026-04-25 17:18 54.06816 -6.82613 17171 ft 257 kts 169°
2026-04-25 17:19 54.05057 -6.82075 17151 ft 258 kts 169°
2026-04-25 17:19 54.03251 -6.81524 16781 ft 270 kts 169°
2026-04-25 17:19 54.01364 -6.80952 16388 ft 280 kts 169°
2026-04-25 17:19 53.99420 -6.80361 15995 ft 287 kts 169°
2026-04-25 17:20 53.97436 -6.79757 15591 ft 291 kts 169°
2026-04-25 17:20 53.95447 -6.79169 15194 ft 287 kts 169°
2026-04-25 17:20 53.93488 -6.78587 14802 ft 284 kts 169°
2026-04-25 17:20 53.91561 -6.78002 14422 ft 281 kts 169°
2026-04-25 17:21 53.89663 -6.77419 14047 ft 280 kts 169°
2026-04-25 17:21 53.87752 -6.76839 13640 ft 279 kts 169°
2026-04-25 17:21 53.85846 -6.76269 13230 ft 278 kts 169°
2026-04-25 17:21 53.83947 -6.75701 12831 ft 277 kts 169°
2026-04-25 17:22 53.82049 -6.75133 12422 ft 276 kts 169°
2026-04-25 17:22 53.81409 -6.74940 12289 ft 275 kts 169°
2026-04-25 17:22 53.78276 -6.74003 11629 ft 274 kts 169°
2026-04-25 17:22 53.76407 -6.73444 11250 ft 273 kts 169°
2026-04-25 17:23 53.74541 -6.72884 10872 ft 272 kts 169°
2026-04-25 17:23 53.72674 -6.72327 10495 ft 272 kts 169°
2026-04-25 17:23 53.70816 -6.71771 10130 ft 271 kts 169°
2026-04-25 17:23 53.68961 -6.71218 9727 ft 270 kts 169°
2026-04-25 17:24 53.67118 -6.70670 9333 ft 268 kts 169°
2026-04-25 17:24 53.65292 -6.70132 8936 ft 265 kts 169°
2026-04-25 17:24 53.63481 -6.69599 8557 ft 264 kts 169°
2026-04-25 17:24 53.61678 -6.69064 8182 ft 262 kts 169°
2026-04-25 17:25 53.59884 -6.68527 7812 ft 261 kts 169°
2026-04-25 17:25 53.58122 -6.68002 7444 ft 259 kts 169°
2026-04-25 17:25 53.56348 -6.67477 7093 ft 258 kts 169°
2026-04-25 17:25 53.54574 -6.66949 6744 ft 257 kts 169°
2026-04-25 17:26 53.52816 -6.66863 6368 ft 253 kts 186°
2026-04-25 17:26 53.51078 -6.67360 6009 ft 252 kts 189°
2026-04-25 17:26 53.49371 -6.67910 5656 ft 246 kts 189°
2026-04-25 17:26 53.47698 -6.68178 5237 ft 240 kts 172°
2026-04-25 17:27 53.46212 -6.66984 4760 ft 240 kts 137°
2026-04-25 17:27 53.45426 -6.64599 4455 ft 236 kts 103°
2026-04-25 17:27 53.45297 -6.61894 4136 ft 231 kts 95°
2026-04-25 17:27 53.45278 -6.61016 4037 ft 231 kts 94°
2026-04-25 17:28 53.45237 -6.56728 3524 ft 205 kts 93°
2026-04-25 17:28 53.45207 -6.54428 3258 ft 190 kts 97°
2026-04-25 17:28 53.45059 -6.52293 3014 ft 180 kts 100°
2026-04-25 17:28 53.44935 -6.50234 2800 ft 174 kts 97°
2026-04-25 17:29 53.44837 -6.48219 2565 ft 176 kts 97°
2026-04-25 17:29 53.44720 -6.46160 2350 ft 185 kts 97°
2026-04-25 17:29 53.44597 -6.43995 2088 ft 186 kts 97°
2026-04-25 17:29 53.44481 -6.41916 1846 ft 170 kts 97°
2026-04-25 17:30 53.44410 -6.40640 1705 ft 156 kts 97°
2026-04-25 17:30 53.44286 -6.38333 1424 ft 144 kts 97°
2026-04-25 17:30 53.44198 -6.36760 1225 ft 125 kts 97°
2026-04-25 17:30 53.44123 -6.35405 1057 ft 112 kts 97°
2026-04-25 17:31 53.44059 -6.34146 944 ft 106 kts 96°
2026-04-25 17:31 53.43995 -6.32907 822 ft 107 kts 97°
2026-04-25 17:31 53.43921 -6.31654 657 ft 106 kts 97°
2026-04-25 17:31 53.43845 -6.30402 549 ft 111 kts 98°
2026-04-25 17:32 53.43775 -6.29089 398 ft 115 kts 97°
2026-04-25 17:32 53.43699 -6.27781 249 ft 109 kts 97°
2026-04-25 17:32 53.43635 -6.26632 207 ft 81 kts 95°
2026-04-25 17:32 53.43599 -6.25979 211 ft 34 kts 93°
2026-04-25 17:33 53.43543 -6.25785 209 ft 14 kts 156°
2026-04-25 17:33 53.43472 -6.25735 209 ft 9 kts 158°
2026-04-25 17:33 53.43420 -6.25699 210 ft 2 kts 156°
2026-04-25 17:33 53.43416 -6.25695 213 ft 1 kts 156°
2026-04-25 17:34 53.43405 -6.25688 210 ft 3 kts 156°
2026-04-25 17:34 53.43378 -6.25668 216 ft 6 kts 156°
2026-04-25 17:34 53.43325 -6.25628 214 ft 11 kts 156°
2026-04-25 17:34 53.43240 -6.25567 211 ft 15 kts 156°
2026-04-25 17:35 53.43179 -6.25523 211 ft 14 kts 156°
2026-04-25 17:35 53.43079 -6.25451 211 ft 14 kts 158°
2026-04-25 17:35 53.43006 -6.25399 207 ft 9 kts 156°
2026-04-25 17:35 53.42993 -6.25389 214 ft 0 kts 156°
2026-04-25 17:36 53.42991 -6.25388 213 ft 2 kts 156°
2026-04-25 17:37 53.42949 -6.25347 210 ft 9 kts 129°
2026-04-25 17:37 53.42961 -6.25232 210 ft 11 kts 75°
2026-04-25 17:37 53.42958 -6.25122 207 ft 8 kts 96°
2026-04-25 17:37 53.42956 -6.25092 211 ft 0 kts 96°
2026-04-25 17:38 53.42955 -6.25072 216 ft 6 kts 95°
2026-04-25 17:38 53.42950 -6.24990 207 ft 4 kts 107°
2026-04-25 17:38 53.42942 -6.24975 207 ft 1 kts 140°
2026-04-25 17:39 53.42930 -6.24969 212 ft 2 kts 169°
2026-04-25 17:39 53.42912 -6.24972 207 ft 1 kts 185°
2026-04-25 17:39 53.42911 -6.24972 207 ft 0 kts 185°